Cedar City, UT

7:14 PM MDT on September 25, 2016 (GMT -0600)
Cedar City Regional

Weather History for KCDC - October, 2013

Change the Weather History Date:

Sunday, October 13, 2013

  Actual Average Record
Temperature  
Mean Temperature 49 °F 51 °F  
Max Temperature 60 °F 67 °F 85 °F (1950)
Min Temperature 37 °F 34 °F 20 °F (2008)
Degree Days  
Heating Degree Days 16 14  
Month to date heating degree days 219 156  
Since 1 July heating degree days 387 299  
Cooling Degree Days 0 0  
Month to date cooling degree days 0 0  
Year to date cooling degree days 667 588  
Moisture  
Dew Point 32 °F    
Average Humidity 54    
Maximum Humidity 79    
Minimum Humidity 28    
Precipitation  
Precipitation 0.00 in 0.05 in 1.40 in (1996)
Month to date precipitation 0.23 0.52  
Year to date precipitation 13.27 8.72  
Sea Level Pressure  
Sea Level Pressure 29.90 in    
Wind  
Wind Speed 10 mph (SSW)    
Max Wind Speed 26 mph    
Max Gust Speed 35 mph    
Visibility 10 miles    
Events Rain    
T = Trace of Precipitation, MM = Missing Value Source: NWS Daily Summary

Daily Weather History Graph

Daily Weather History Graph

Search for Another Location

Airport or City:

Trip Planner

Search our weather history database for the weather conditions in past years. The results will help you decide how hot, cold, wet, or windy it might be!

Date:

Astronomy

Oct. 13, 2013 Rise Set
Actual Time 7:39 AM MDT 6:57 PM MDT
Civil Twilight 7:12 AM MDT 7:23 PM MDT
Nautical Twilight 6:42 AM MDT 7:54 PM MDT
Astronomical Twilight 6:11 AM MDT 8:24 PM MDT
Moon 3:46 PM MDT (10/13) 1:59 AM MDT (10/13)
Length of Visible Light 12h 10m
Length of Day
11h 18m
Waxing Gibbous, 70% of the Moon is Illuminated
Oct 13
Waxing Gibbous
Oct 18
Full
Oct 26
Last Quarter
Nov 3
New
Nov 9
First Quarter

Hourly Weather History & Observations

Time (MDT) Temp. Windchill Dew Point Humidity Pressure Visibility Wind Dir Wind Speed Gust Speed Precip Events Conditions
12:53 AM 44.1 °F 39.5 °F 33.1 °F 65% 29.86 in 10.0 mi SW 8.1 mph - N/A   Clear
1:53 AM 44.1 °F 40.8 °F 33.1 °F 65% 29.86 in 10.0 mi WSW 5.8 mph - N/A   Clear
2:53 AM 39.9 °F 37.8 °F 33.1 °F 77% 29.86 in 10.0 mi SE 3.5 mph - N/A   Clear
3:53 AM 41.0 °F - 32.0 °F 70% 29.84 in 10.0 mi Calm Calm - N/A   Clear
4:53 AM 39.0 °F 35.7 °F 30.9 °F 73% 29.85 in 10.0 mi WSW 4.6 mph - N/A   Clear
5:53 AM 39.9 °F - 32.0 °F 73% 29.85 in 10.0 mi Calm Calm - N/A   Clear
6:53 AM 39.9 °F 35.8 °F 33.1 °F 77% 29.87 in 10.0 mi South 5.8 mph - N/A   Clear
7:53 AM 41.0 °F 36.4 °F 32.0 °F 70% 29.89 in 10.0 mi South 6.9 mph - N/A   Clear
8:53 AM 48.0 °F - 32.0 °F 54% 29.87 in 10.0 mi South 8.1 mph - N/A   Clear
9:53 AM 51.1 °F - 33.1 °F 50% 29.85 in 10.0 mi Variable 4.6 mph - N/A   Clear
10:53 AM 54.0 °F - 28.9 °F 38% 29.85 in 10.0 mi South 19.6 mph 31.1 mph N/A   Clear
11:53 AM 55.0 °F - 28.9 °F 37% 29.86 in 10.0 mi SSW 17.3 mph 29.9 mph N/A   Scattered Clouds
12:53 PM 54.0 °F - 30.0 °F 40% 29.87 in 10.0 mi SSW 9.2 mph 24.2 mph N/A   Overcast
1:53 PM 60.1 °F - 32.0 °F 35% 29.83 in 10.0 mi South 18.4 mph 26.5 mph N/A   Clear
2:53 PM 60.1 °F - 30.9 °F 33% 29.83 in 10.0 mi SSW 17.3 mph 25.3 mph N/A   Partly Cloudy
3:53 PM 57.0 °F - 25.0 °F 29% 29.83 in 10.0 mi SSW 19.6 mph 32.2 mph N/A   Clear
4:53 PM 53.1 °F - 27.0 °F 37% 29.86 in 10.0 mi South 20.7 mph 31.1 mph N/A   Partly Cloudy
5:53 PM 53.1 °F - 25.0 °F 34% 29.86 in 10.0 mi South 16.1 mph 24.2 mph 0.00 in   Partly Cloudy
6:53 PM 46.0 °F 41.0 °F 35.1 °F 66% 29.95 in 10.0 mi NNW 10.4 mph - 0.02 in   Overcast
7:53 PM 43.0 °F 36.0 °F 36.0 °F 76% 30.00 in 8.0 mi WNW 13.8 mph - 0.01 in Rain Rain
8:11 PM 42.8 °F 39.3 °F 35.6 °F 76% 30.06 in 10.0 mi NW 5.8 mph - 0.01 in Rain Light Rain
8:53 PM 43.0 °F 38.2 °F 39.0 °F 86% 29.99 in 10.0 mi SE 8.1 mph - 0.01 in Rain Light Rain
9:53 PM 41.0 °F 37.1 °F 35.1 °F 79% 29.97 in 10.0 mi East 5.8 mph - 0.00 in   Partly Cloudy
10:53 PM 36.0 °F 32.1 °F 34.0 °F 93% 30.00 in 10.0 mi NE 4.6 mph - N/A   Clear
11:53 PM 35.1 °F - 33.1 °F 92% 30.03 in 10.0 mi Calm Calm - N/A   Scattered Clouds